TimeEST,TemperatureF,Dew PointF,Humidity,Sea Level PressureIn,VisibilityMPH,Wind Direction,Wind SpeedMPH,Gust SpeedMPH,PrecipitationIn,Events,Conditions,WindDirDegrees,DateUTC
12:15 AM,55.4,42.8,63,29.95,10.0,East,3.5,-,N/A,Rain,Light Rain,90,2012-11-06 05:15:00
12:35 AM,53.6,42.8,67,29.94,10.0,East,8.1,-,N/A,,Drizzle,100,2012-11-06 05:35:00
12:55 AM,53.6,44.6,72,29.95,10.0,East,4.6,-,N/A,Rain,Rain,90,2012-11-06 05:55:00
1:15 AM,51.8,44.6,76,29.95,10.0,East,5.8,-,N/A,Rain,Rain,100,2012-11-06 06:15:00
1:35 AM,50.0,46.4,87,29.93,7.0,East,4.6,-,N/A,Rain,Light Rain,90,2012-11-06 06:35:00
1:55 AM,50.0,46.4,87,29.93,7.0,East,6.9,-,N/A,Rain,Rain,100,2012-11-06 06:55:00
2:15 AM,50.0,46.4,87,29.95,10.0,ESE,4.6,-,N/A,Rain,Light Rain,110,2012-11-06 07:15:00
2:35 AM,50.0,46.4,87,29.95,7.0,Calm,Calm,-,N/A,Rain,Rain,0,2012-11-06 07:35:00
2:55 AM,50.0,46.4,87,29.94,7.0,Calm,Calm,-,N/A,Rain,Rain,0,2012-11-06 07:55:00
3:15 AM,48.2,46.4,93,29.95,7.0,East,3.5,-,N/A,Rain,Light Rain,100,2012-11-06 08:15:00
3:35 AM,48.2,46.4,93,29.94,7.0,Calm,Calm,-,N/A,Rain,Light Rain,0,2012-11-06 08:35:00
3:55 AM,48.2,46.4,93,29.93,7.0,Calm,Calm,-,N/A,Rain,Rain,0,2012-11-06 08:55:00
4:15 AM,46.4,44.6,93,29.95,10.0,ESE,5.8,-,N/A,Rain,Light Rain,110,2012-11-06 09:15:00
4:35 AM,46.4,44.6,93,29.95,7.0,East,4.6,-,N/A,Rain,Rain,100,2012-11-06 09:35:00
4:55 AM,46.4,44.6,93,29.96,7.0,Calm,Calm,-,N/A,Rain,Rain,0,2012-11-06 09:55:00
5:15 AM,46.4,44.6,93,29.96,5.0,East,3.5,-,N/A,Rain,Rain,90,2012-11-06 10:15:00
5:35 AM,46.4,44.6,93,29.95,4.0,East,3.5,-,N/A,Rain,Rain,80,2012-11-06 10:35:00
5:55 AM,46.4,44.6,93,29.95,4.0,ENE,5.8,-,N/A,Rain,Rain,70,2012-11-06 10:55:00
6:15 AM,46.4,44.6,93,29.95,5.0,ENE,3.5,-,N/A,Rain,Light Rain,60,2012-11-06 11:15:00
6:35 AM,46.4,44.6,93,29.95,4.0,ENE,5.8,-,N/A,Rain,Light Rain,60,2012-11-06 11:35:00
6:55 AM,46.4,44.6,93,29.95,5.0,Calm,Calm,-,N/A,Rain,Rain,0,2012-11-06 11:55:00
7:15 AM,46.4,44.6,93,29.95,4.0,NE,3.5,-,N/A,Rain,Light Rain,50,2012-11-06 12:15:00
7:35 AM,46.4,44.6,93,29.95,2.0,NNE,3.5,-,N/A,Rain,Light Rain,20,2012-11-06 12:35:00
7:55 AM,46.4,44.6,93,29.96,2.0,Calm,Calm,-,N/A,Rain,Light Rain,0,2012-11-06 12:55:00
8:15 AM,46.4,44.6,93,29.97,2.0,Calm,Calm,-,N/A,Rain,Rain,0,2012-11-06 13:15:00
8:35 AM,46.4,44.6,93,29.97,1.8,Calm,Calm,-,N/A,Rain,Rain,0,2012-11-06 13:35:00
8:55 AM,44.6,44.6,100,29.97,2.0,North,3.5,-,N/A,Rain-Thunderstorm,Light Thunderstorms and Rain,10,2012-11-06 13:55:00
9:15 AM,44.6,44.6,100,29.97,2.5,Calm,Calm,-,N/A,Rain,Rain,0,2012-11-06 14:15:00
9:35 AM,44.6,44.6,100,29.98,3.0,NNE,3.5,-,N/A,Rain,Light Rain,30,2012-11-06 14:35:00
9:55 AM,44.6,44.6,100,29.98,3.0,ENE,4.6,-,N/A,Rain,Light Rain,60,2012-11-06 14:55:00
10:15 AM,44.6,44.6,100,29.99,3.0,NNE,3.5,-,N/A,Rain,Light Rain,30,2012-11-06 15:15:00
10:35 AM,44.6,44.6,100,29.98,4.0,NE,3.5,-,N/A,Rain,Rain,50,2012-11-06 15:35:00
10:55 AM,46.4,44.6,93,29.97,5.0,NNE,4.6,-,N/A,Rain,Light Rain,30,2012-11-06 15:55:00
11:15 AM,48.2,44.6,87,29.96,10.0,NE,5.8,-,N/A,,Overcast,50,2012-11-06 16:15:00
11:35 AM,50.0,44.6,82,29.95,10.0,NNE,5.8,-,N/A,,Overcast,30,2012-11-06 16:35:00
11:55 AM,50.0,42.8,76,29.95,10.0,NNE,4.6,-,N/A,,Mostly Cloudy,20,2012-11-06 16:55:00
12:15 PM,51.8,42.8,71,29.93,10.0,NE,3.5,-,N/A,,Mostly Cloudy,40,2012-11-06 17:15:00
12:35 PM,51.8,42.8,71,29.93,10.0,NNE,4.6,-,N/A,,Overcast,20,2012-11-06 17:35:00
12:55 PM,51.8,41.0,67,29.92,10.0,NE,5.8,-,N/A,,Overcast,40,2012-11-06 17:55:00
1:15 PM,51.8,41.0,67,29.92,10.0,NNE,3.5,-,N/A,,Overcast,30,2012-11-06 18:15:00
1:35 PM,51.8,41.0,67,29.91,10.0,Calm,Calm,-,N/A,,Overcast,0,2012-11-06 18:35:00
1:55 PM,51.8,39.2,62,29.90,10.0,NE,6.9,-,N/A,,Overcast,40,2012-11-06 18:55:00
2:15 PM,51.8,41.0,67,29.90,10.0,NNE,3.5,-,N/A,,Overcast,20,2012-11-06 19:15:00
2:35 PM,51.8,39.2,62,29.90,10.0,NNE,3.5,-,N/A,,Overcast,30,2012-11-06 19:35:00
2:55 PM,51.8,39.2,62,29.90,10.0,NE,3.5,-,N/A,,Overcast,40,2012-11-06 19:55:00
3:15 PM,51.8,39.2,62,29.90,10.0,NE,4.6,-,N/A,,Overcast,40,2012-11-06 20:15:00
3:35 PM,51.8,39.2,62,29.89,10.0,Calm,Calm,-,N/A,,Overcast,0,2012-11-06 20:35:00
3:55 PM,51.8,37.4,58,29.89,10.0,Calm,Calm,-,N/A,,Overcast,0,2012-11-06 20:55:00
4:15 PM,51.8,37.4,58,29.90,10.0,Calm,Calm,-,N/A,,Overcast,0,2012-11-06 21:15:00
4:35 PM,50.0,37.4,62,29.90,10.0,Calm,Calm,-,N/A,,Overcast,0,2012-11-06 21:35:00
5:15 PM,50.0,39.2,66,29.93,10.0,Calm,Calm,-,N/A,,Overcast,0,2012-11-06 22:15:00
5:35 PM,50.0,41.0,71,29.93,10.0,Calm,Calm,-,N/A,,Overcast,0,2012-11-06 22:35:00
5:55 PM,48.2,41.0,76,29.92,10.0,Calm,Calm,-,N/A,,Overcast,0,2012-11-06 22:55:00
6:15 PM,48.2,41.0,76,29.92,10.0,Calm,Calm,-,N/A,,Overcast,0,2012-11-06 23:15:00
6:35 PM,48.2,41.0,76,29.92,10.0,Calm,Calm,-,N/A,,Overcast,0,2012-11-06 23:35:00
6:55 PM,48.2,41.0,76,29.93,10.0,Calm,Calm,-,N/A,,Overcast,0,2012-11-06 23:55:00
7:15 PM,46.4,41.0,81,29.92,10.0,Calm,Calm,-,N/A,,Overcast,0,2012-11-07 00:15:00
7:35 PM,46.4,41.0,81,29.92,10.0,Calm,Calm,-,N/A,,Overcast,0,2012-11-07 00:35:00
7:55 PM,46.4,41.0,81,29.93,10.0,Calm,Calm,-,N/A,,Overcast,0,2012-11-07 00:55:00
8:15 PM,46.4,41.0,81,29.93,10.0,Calm,Calm,-,N/A,,Overcast,0,2012-11-07 01:15:00
8:35 PM,46.4,41.0,81,29.93,10.0,Calm,Calm,-,N/A,,Overcast,0,2012-11-07 01:35:00
8:55 PM,46.4,41.0,81,29.94,10.0,Calm,Calm,-,N/A,,Overcast,0,2012-11-07 01:55:00
9:15 PM,44.6,42.8,93,29.95,10.0,Calm,Calm,-,N/A,,Overcast,0,2012-11-07 02:15:00
9:35 PM,44.6,41.0,87,29.95,10.0,Calm,Calm,-,N/A,,Overcast,0,2012-11-07 02:35:00
9:55 PM,44.6,37.4,76,29.94,10.0,NNE,3.5,-,N/A,,Mostly Cloudy,30,2012-11-07 02:55:00
10:15 PM,42.8,37.4,81,29.94,10.0,Calm,Calm,-,N/A,,Mostly Cloudy,0,2012-11-07 03:15:00
10:35 PM,42.8,37.4,81,29.94,10.0,Calm,Calm,-,N/A,,Overcast,0,2012-11-07 03:35:00
10:55 PM,42.8,37.4,81,29.93,10.0,Calm,Calm,-,N/A,,Overcast,0,2012-11-07 03:55:00
11:15 PM,42.8,37.4,81,29.93,10.0,Calm,Calm,-,N/A,,Overcast,0,2012-11-07 04:15:00
11:35 PM,42.8,35.6,76,29.93,10.0,Calm,Calm,-,N/A,,Overcast,0,2012-11-07 04:35:00
11:55 PM,42.8,37.4,81,29.93,10.0,Calm,Calm,-,N/A,,Overcast,0,2012-11-07 04:55:00